When you browse on this site, cookies collect data to enhance your experience and personalize the content and advertising you see.
Visit our Privacy Policy to learn more. By continuing to use the site, you agree to this use of cookies and data.
  • In Sweden
  • List of Countries
  • For 7 days
  • Water Temperature
  • Weather Map
  • Weather Widgets
  • user-avatar
    Login

    Hourly Weather Cestas

    Today, 14 November, Thursday

    Time Temperature Precipitation Wind Pressure Humidity
    00:00 +8°C° 2.5 mm 5 mps 744 mmHg 89%
    01:00 +8°C° 1.3 mm 5 mps 744 mmHg 85%
    02:00 +8°C° 1.3 mm 4 mps 744 mmHg 81%
    03:00 +7°C° 1.3 mm 4 mps 744 mmHg 77%
    04:00 +7°C° 0.3 mm 4 mps 744 mmHg 77%
    05:00 +8°C° 0.3 mm 3 mps 744 mmHg 77%
    06:00 +7°C° 0.3 mm 3 mps 744 mmHg 77%
    07:00 +8°C° 0.3 mm 3 mps 744 mmHg 76%
    08:00 +8°C° 0.3 mm 3 mps 744 mmHg 75%
    09:00 +8°C° 0.3 mm 2 mps 744 mmHg 74%
    10:00 +9°C° 0.2 mm 3 mps 744 mmHg 69%
    11:00 +10°C° 0.2 mm 3 mps 743 mmHg 65%
    12:00 +10°C° 0.2 mm 3 mps 743 mmHg 61%
    13:00 +10°C° 0.3 mm 3 mps 743 mmHg 64%
    14:00 +10°C° 0.3 mm 2 mps 742 mmHg 66%
    15:00 +10°C° 0.3 mm 2 mps 742 mmHg 69%
    16:00 +10°C° 0.1 mm 1 mps 742 mmHg 73%
    17:00 +9°C° 0.1 mm 1 mps 742 mmHg 77%
    18:00 +7°C° 0.1 mm 0 mps 742 mmHg 81%
    19:00 +6°C° 0.2 mm 0 mps 742 mmHg 82%
    20:00 +6°C° 0.2 mm 0 mps 743 mmHg 84%
    21:00 +7°C° 0.2 mm 1 mps 743 mmHg 85%
    22:00 +7°C° 0 mm 1 mps 743 mmHg 86%
    23:00 +6°C° 0 mm 1 mps 743 mmHg 87%

    Tomorrow, 15 November, Friday

    Time Temperature Precipitation Wind Pressure Humidity
    00:00 +5°C° 0 mm 2 mps 744 mmHg 89%
    01:00 +5°C° 0.1 mm 2 mps 744 mmHg 89%
    02:00 +5°C° 0.1 mm 2 mps 744 mmHg 90%
    03:00 +6°C° 0.1 mm 2 mps 744 mmHg 90%
    04:00 +5°C° 0.1 mm 2 mps 744 mmHg 90%
    05:00 +5°C° 0.1 mm 2 mps 744 mmHg 90%
    06:00 +5°C° 0.1 mm 2 mps 744 mmHg 90%
    07:00 +5°C° 0.1 mm 2 mps 745 mmHg 89%
    08:00 +6°C° 0.1 mm 2 mps 745 mmHg 87%
    09:00 +6°C° 0.1 mm 2 mps 746 mmHg 86%
    10:00 +8°C° 0.1 mm 1 mps 746 mmHg 82%
    11:00 +9°C° 0.1 mm 1 mps 747 mmHg 78%
    12:00 +10°C° 0.1 mm 1 mps 747 mmHg 74%
    13:00 +10°C° 0.4 mm 1 mps 747 mmHg 74%
    14:00 +9°C° 0.4 mm 1 mps 747 mmHg 74%
    15:00 +8°C° 0.4 mm 2 mps 747 mmHg 74%
    16:00 +8°C° 0.1 mm 1 mps 748 mmHg 78%
    17:00 +8°C° 0.1 mm 1 mps 748 mmHg 82%
    18:00 +7°C° 0.1 mm 1 mps 749 mmHg 86%
    19:00 +6°C° 0 mm 1 mps 749 mmHg 86%
    20:00 +6°C° 0 mm 1 mps 750 mmHg 86%
    21:00 +5°C° 0 mm 0 mps 750 mmHg 86%
    22:00 +6°C° 0 mm 1 mps 750 mmHg 85%
    23:00 +5°C° 0 mm 2 mps 750 mmHg 85%

    Day after tomorrow, 16 November, Saturday

    Time Temperature Precipitation Wind Pressure Humidity
    00:00 +5°C° 0 mm 2 mps 750 mmHg 85%
    01:00 +4°C° 0.1 mm 3 mps 750 mmHg 85%
    02:00 +5°C° 0.1 mm 3 mps 750 mmHg 86%
    03:00 +5°C° 0.1 mm 3 mps 750 mmHg 86%
    04:00 +5°C° 2 mm 3 mps 749 mmHg 88%
    05:00 +7°C° 2 mm 3 mps 749 mmHg 90%
    06:00 +7°C° 2 mm 3 mps 749 mmHg 92%
    07:00 +7°C° 1.7 mm 3 mps 749 mmHg 92%
    08:00 +7°C° 1.7 mm 3 mps 749 mmHg 92%
    09:00 +7°C° 1.7 mm 3 mps 749 mmHg 92%
    10:00 +8°C° 1.1 mm 3 mps 750 mmHg 89%
    11:00 +9°C° 1.1 mm 2 mps 750 mmHg 86%
    12:00 +9°C° 1.1 mm 2 mps 750 mmHg 83%
    13:00 +9°C° 0.7 mm 2 mps 750 mmHg 82%
    14:00 +9°C° 0.7 mm 2 mps 750 mmHg 82%
    15:00 +9°C° 0.7 mm 2 mps 750 mmHg 81%
    16:00 +9°C° 0.3 mm 2 mps 750 mmHg 83%
    17:00 +8°C° 0.3 mm 2 mps 751 mmHg 85%
    18:00 +7°C° 0.3 mm 2 mps 751 mmHg 87%
    19:00 +6°C° 0 mm 2 mps 751 mmHg 88%
    20:00 +7°C° 0 mm 1 mps 752 mmHg 89%
    21:00 +6°C° 0 mm 1 mps 752 mmHg 90%
    22:00 +6°C° 0 mm 1 mps 752 mmHg 91%
    23:00 +6°C° 0 mm 1 mps 752 mmHg 92%

    17 November, Sunday

    Time Temperature Precipitation Wind Pressure Humidity
    00:00 +4°C° 0 mm 0 mps 752 mmHg 93%
    01:00 +4°C° 0 mm 0 mps 752 mmHg 93%
    02:00 +4°C° 0 mm 0 mps 752 mmHg 93%
    03:00 +4°C° 0 mm 0 mps 752 mmHg 94%
    04:00 +4°C° 0 mm 0 mps 752 mmHg 94%
    05:00 +4°C° 0 mm 0 mps 752 mmHg 94%
    06:00 +4°C° 0 mm 0 mps 752 mmHg 95%
    07:00 +5°C° 0 mm 1 mps 752 mmHg 93%
    08:00 +6°C° 0 mm 1 mps 752 mmHg 92%
    09:00 +6°C° 0 mm 1 mps 752 mmHg 90%
    10:00 +7°C° 0 mm 1 mps 752 mmHg 86%
    11:00 +8°C° 0 mm 1 mps 752 mmHg 83%
    12:00 +9°C° 0 mm 1 mps 752 mmHg 79%
    13:00 +9°C° 0 mm 1 mps 752 mmHg 78%
    14:00 +9°C° 0 mm 1 mps 751 mmHg 78%
    15:00 +8°C° 0 mm 2 mps 751 mmHg 78%
    16:00 +7°C° 0 mm 2 mps 751 mmHg 81%
    17:00 +7°C° 0 mm 1 mps 752 mmHg 85%
    18:00 +6°C° 0 mm 1 mps 752 mmHg 89%
    19:00 +6°C° 0 mm 1 mps 752 mmHg 89%
    20:00 +6°C° 0 mm 1 mps 752 mmHg 89%
    21:00 +6°C° 0 mm 1 mps 753 mmHg 89%
    22:00 +5°C° 0 mm 1 mps 753 mmHg 90%
    23:00 +5°C° 0 mm 1 mps 753 mmHg 90%

    18 November, Monday

    Time Temperature Precipitation Wind Pressure Humidity
    00:00 +5°C° 0 mm 1 mps 753 mmHg 91%
    01:00 +5°C° 0 mm 1 mps 753 mmHg 90%
    02:00 +4°C° 0 mm 0 mps 753 mmHg 89%
    03:00 +3°C° 0 mm 0 mps 753 mmHg 88%
    04:00 +5°C° 0 mm 1 mps 753 mmHg 87%
    05:00 +5°C° 0 mm 1 mps 753 mmHg 86%
    06:00 +6°C° 0 mm 1 mps 754 mmHg 85%
    07:00 +5°C° 0.1 mm 2 mps 754 mmHg 86%
    08:00 +6°C° 0.1 mm 2 mps 754 mmHg 86%
    09:00 +6°C° 0.1 mm 2 mps 754 mmHg 86%
    10:00 +8°C° 0.2 mm 2 mps 754 mmHg 82%
    11:00 +10°C° 0.2 mm 1 mps 755 mmHg 78%
    12:00 +11°C° 0.2 mm 1 mps 755 mmHg 74%
    13:00 +11°C° 0 mm 1 mps 754 mmHg 73%
    14:00 +11°C° 0 mm 1 mps 754 mmHg 71%
    15:00 +10°C° 0 mm 2 mps 754 mmHg 69%
    16:00 +10°C° 0 mm 2 mps 754 mmHg 72%
    17:00 +9°C° 0 mm 2 mps 754 mmHg 76%
    18:00 +8°C° 0 mm 2 mps 754 mmHg 80%
    19:00 +8°C° 0 mm 2 mps 754 mmHg 81%
    20:00 +8°C° 0 mm 2 mps 754 mmHg 82%
    21:00 +7°C° 0 mm 2 mps 754 mmHg 84%
    22:00 +7°C° 0 mm 3 mps 753 mmHg 86%
    23:00 +8°C° 0 mm 3 mps 753 mmHg 88%

    19 November, Tuesday

    Time Temperature Precipitation Wind Pressure Humidity
    00:00 +8°C° 0 mm 3 mps 752 mmHg 90%
    01:00 +7°C° 0.1 mm 4 mps 752 mmHg 88%
    02:00 +7°C° 0.1 mm 4 mps 752 mmHg 85%
    03:00 +7°C° 0.1 mm 5 mps 751 mmHg 82%
    04:00 +7°C° 0.2 mm 5 mps 751 mmHg 83%
    05:00 +7°C° 0.2 mm 4 mps 751 mmHg 85%
    06:00 +8°C° 0.2 mm 4 mps 751 mmHg 86%
    07:00 +8°C° 0.2 mm 4 mps 751 mmHg 86%
    08:00 +10°C° 0.2 mm 4 mps 751 mmHg 86%
    09:00 +10°C° 0.2 mm 4 mps 751 mmHg 86%
    10:00 +11°C° 0.3 mm 3 mps 751 mmHg 84%
    11:00 +11°C° 0.3 mm 3 mps 751 mmHg 81%
    12:00 +12°C° 0.3 mm 3 mps 751 mmHg 78%
    13:00 +11°C° 0.3 mm 3 mps 751 mmHg 80%
    14:00 +12°C° 0.3 mm 2 mps 751 mmHg 82%
    15:00 +12°C° 0.3 mm 2 mps 751 mmHg 84%
    16:00 +10°C° 0.2 mm 2 mps 750 mmHg 87%
    17:00 +10°C° 0.2 mm 3 mps 750 mmHg 90%
    18:00 +9°C° 0.2 mm 3 mps 750 mmHg 92%
    19:00 +9°C° 0 mm 3 mps 750 mmHg 91%
    20:00 +9°C° 0 mm 3 mps 750 mmHg 91%
    21:00 +8°C° 0 mm 3 mps 750 mmHg 90%
    22:00 +8°C° 0 mm 3 mps 749 mmHg 90%
    23:00 +8°C° 0 mm 3 mps 749 mmHg 89%
    Show more